Simultaneous Nadir Overpasses (SNOs) Predictions

Prediction of SNOs between GOES-15 and METOP-C Satellite Orbit:

Table of predicted SNOs for the next 14.0 days since TLE Epoch: 10/21/2023
Index Date Time (GOES-15) GOES-15 Lat,Lon METOP-C Lat,Lon Distance(km) Time Diff (sec)
1 10/21/2023 16:17:29 0.30, 74.97 0.89, 77.48 286.78 80
2 10/23/2023 04:39:06 -0.31, 73.23 -0.23, 72.84 43.89 80
3 10/24/2023 16:58:13 0.30, 71.72 -0.50, 68.18 403.54 80
4 10/25/2023 16:34:57 0.30, 70.67 0.83, 73.13 280.00 80
5 10/27/2023 04:56:35 -0.30, 68.93 -0.23, 68.48 50.83 80
6 10/28/2023 17:15:42 0.30, 67.41 -0.48, 63.81 409.61 80
7 10/29/2023 16:52:26 0.30, 66.36 0.86, 68.76 273.79 80
8 10/31/2023 05:14:04 -0.30, 64.63 -0.20, 64.12 57.90 80
9 11/01/2023 17:33:09 0.29, 63.12 -0.54, 59.47 416.51 80
10 11/02/2023 17:09:53 0.29, 62.07 0.81, 64.41 266.51 80
